Time,TemperatureF,DewpointF,PressureIn,WindDirection,WindDirectionDegrees,WindSpeedMPH,WindSpeedGustMPH,Humidity,HourlyPrecipIn,Conditions,Clouds,dailyrainin,SoftwareType,DateUTC
2013-06-09 00:01:00,69.5,54.6,30.00,SSE,150,0.0,1.0,59,0.00,,---,0.00,VWS V14.00,2013-06-09 04:01:00,
2013-06-09 00:02:00,69.5,55.0,30.00,SSE,150,0.0,1.0,60,0.00,,---,0.00,VWS V14.00,2013-06-09 04:02:00,
2013-06-09 00:03:00,69.4,54.9,30.00,SSE,150,0.0,1.0,60,0.00,,---,0.00,VWS V14.00,2013-06-09 04:03:00,
2013-06-09 00:07:00,69.3,54.8,30.00,SSE,150,0.0,1.0,60,0.00,,---,0.00,VWS V14.00,2013-06-09 04:07:00,
2013-06-09 00:10:00,69.2,54.7,30.00,SSE,150,0.0,1.0,60,0.00,,---,0.00,VWS V14.00,2013-06-09 04:10:00,
2013-06-09 00:15:00,69.0,54.5,30.00,SSE,149,0.0,1.0,60,0.00,,---,0.00,VWS V14.00,2013-06-09 04:15:00,
2013-06-09 00:20:00,68.9,54.9,30.00,SSE,148,0.0,1.0,61,0.00,,---,0.00,VWS V14.00,2013-06-09 04:20:00,
2013-06-09 00:25:00,68.6,54.6,30.00,SSE,148,0.0,1.0,61,0.00,,---,0.00,VWS V14.00,2013-06-09 04:25:00,
2013-06-09 00:30:00,68.5,54.5,30.00,SSE,148,0.0,0.0,61,0.00,,---,0.00,VWS V14.00,2013-06-09 04:30:00,
2013-06-09 00:36:00,68.3,54.8,30.00,SSE,148,0.0,1.0,62,0.00,,---,0.00,VWS V14.00,2013-06-09 04:36:00,
2013-06-09 00:41:00,68.3,54.8,30.00,SE,146,0.0,1.0,62,0.00,,---,0.00,VWS V14.00,2013-06-09 04:41:00,
2013-06-09 00:46:00,68.1,54.6,30.01,SE,145,0.0,1.0,62,0.00,,---,0.00,VWS V14.00,2013-06-09 04:46:00,
2013-06-09 00:51:00,68.0,55.0,30.01,SE,145,0.0,1.0,63,0.00,,---,0.00,VWS V14.00,2013-06-09 04:51:00,
2013-06-09 00:56:00,68.0,55.0,30.01,SE,145,0.0,1.0,63,0.00,,---,0.00,VWS V14.00,2013-06-09 04:56:00,
2013-06-09 01:01:00,67.9,54.8,30.01,SE,145,0.0,0.0,63,0.00,,---,0.00,VWS V14.00,2013-06-09 05:01:00,
2013-06-09 01:06:00,67.9,55.3,30.01,SE,146,0.0,0.0,64,0.00,,---,0.00,VWS V14.00,2013-06-09 05:06:00,
2013-06-09 01:11:00,67.8,55.2,30.01,SE,145,0.0,0.0,64,0.00,,---,0.00,VWS V14.00,2013-06-09 05:11:00,
2013-06-09 01:17:00,67.8,55.2,30.01,SE,145,0.0,0.0,64,0.00,,---,0.00,VWS V14.00,2013-06-09 05:17:00,
2013-06-09 01:22:00,67.7,55.5,30.00,SE,145,0.0,0.0,65,0.00,,---,0.00,VWS V14.00,2013-06-09 05:22:00,
2013-06-09 01:27:00,67.7,55.5,30.01,SE,145,0.0,0.0,65,0.00,,---,0.00,VWS V14.00,2013-06-09 05:27:00,
2013-06-09 01:32:00,67.6,55.4,30.01,SE,145,0.0,0.0,65,0.00,,---,0.00,VWS V14.00,2013-06-09 05:32:00,
2013-06-09 01:37:00,67.4,55.2,30.01,SE,145,0.0,0.0,65,0.00,,---,0.00,VWS V14.00,2013-06-09 05:37:00,
2013-06-09 01:42:00,67.3,55.2,30.01,SE,145,0.0,1.0,65,0.00,,---,0.00,VWS V14.00,2013-06-09 05:42:00,
2013-06-09 01:47:00,67.2,55.5,30.02,SE,145,0.0,1.0,66,0.00,,---,0.00,VWS V14.00,2013-06-09 05:47:00,
2013-06-09 01:52:00,67.0,55.3,30.02,SE,145,0.0,1.0,66,0.00,,---,0.00,VWS V14.00,2013-06-09 05:52:00,
2013-06-09 01:57:00,66.9,55.6,30.01,SE,145,0.0,1.0,67,0.00,,---,0.00,VWS V14.00,2013-06-09 05:57:00,
2013-06-09 02:02:00,66.8,55.5,30.01,SE,145,0.0,0.0,67,0.00,,---,0.00,VWS V14.00,2013-06-09 06:02:00,
2013-06-09 02:07:00,66.6,55.3,30.01,SE,145,0.0,0.0,67,0.00,,---,0.00,VWS V14.00,2013-06-09 06:07:00,
2013-06-09 02:13:00,66.3,55.4,30.01,SE,146,0.0,0.0,68,0.00,,---,0.00,VWS V14.00,2013-06-09 06:13:00,
2013-06-09 02:18:00,66.1,55.2,30.02,SE,145,0.0,0.0,68,0.00,,---,0.00,VWS V14.00,2013-06-09 06:18:00,
2013-06-09 02:23:00,65.8,55.4,30.02,SE,145,0.0,0.0,69,0.00,,---,0.00,VWS V14.00,2013-06-09 06:23:00,
2013-06-09 02:28:00,65.5,55.1,30.02,SE,145,0.0,0.0,69,0.00,,---,0.00,VWS V14.00,2013-06-09 06:28:00,
2013-06-09 02:33:00,65.3,55.3,30.02,SE,145,0.0,0.0,70,0.00,,---,0.00,VWS V14.00,2013-06-09 06:33:00,
2013-06-09 02:38:00,65.0,55.0,30.02,SE,145,0.0,0.0,70,0.00,,---,0.00,VWS V14.00,2013-06-09 06:38:00,
2013-06-09 02:43:00,64.8,55.2,30.01,SE,145,0.0,0.0,71,0.00,,---,0.00,VWS V14.00,2013-06-09 06:43:00,
2013-06-09 02:48:00,64.6,55.0,30.01,SE,146,0.0,0.0,71,0.00,,---,0.00,VWS V14.00,2013-06-09 06:48:00,
2013-06-09 02:54:00,64.4,54.8,30.02,SE,145,0.0,0.0,71,0.00,,---,0.00,VWS V14.00,2013-06-09 06:54:00,
2013-06-09 02:59:00,64.2,55.0,30.01,SE,145,0.0,0.0,72,0.00,,---,0.00,VWS V14.00,2013-06-09 06:59:00,
2013-06-09 03:04:00,64.1,54.9,30.01,SE,145,0.0,0.0,72,0.00,,---,0.00,VWS V14.00,2013-06-09 07:04:00,
2013-06-09 03:09:00,64.0,55.2,30.02,SE,146,0.0,0.0,73,0.00,,---,0.00,VWS V14.00,2013-06-09 07:09:00,
2013-06-09 03:14:00,64.0,55.2,30.02,SE,145,0.0,0.0,73,0.00,,---,0.00,VWS V14.00,2013-06-09 07:14:00,
2013-06-09 03:19:00,63.9,55.1,30.01,SE,145,0.0,0.0,73,0.00,,---,0.00,VWS V14.00,2013-06-09 07:19:00,
2013-06-09 03:25:00,63.9,55.1,30.01,SE,145,0.0,0.0,73,0.00,,---,0.00,VWS V14.00,2013-06-09 07:25:00,
2013-06-09 03:30:00,63.8,55.0,30.01,SE,145,0.0,0.0,73,0.00,,---,0.00,VWS V14.00,2013-06-09 07:30:00,
2013-06-09 03:35:00,63.7,54.9,30.01,SE,145,0.0,1.0,73,0.00,,---,0.00,VWS V14.00,2013-06-09 07:35:00,
2013-06-09 03:40:00,63.6,55.2,30.01,SE,145,0.0,1.0,74,0.00,,---,0.00,VWS V14.00,2013-06-09 07:40:00,
2013-06-09 03:45:00,63.5,55.1,30.01,SE,145,0.0,1.0,74,0.00,,---,0.00,VWS V14.00,2013-06-09 07:45:00,
2013-06-09 03:50:00,63.4,55.3,30.02,SE,146,0.0,1.0,75,0.00,,---,0.00,VWS V14.00,2013-06-09 07:50:00,
2013-06-09 03:55:00,63.3,55.2,30.02,SE,146,0.0,1.0,75,0.00,,---,0.00,VWS V14.00,2013-06-09 07:55:00,
2013-06-09 04:00:00,63.2,55.2,30.02,SE,145,0.0,0.0,75,0.00,,---,0.00,VWS V14.00,2013-06-09 08:00:00,
2013-06-09 04:05:00,63.1,55.4,30.01,SE,145,0.0,0.0,76,0.00,,---,0.00,VWS V14.00,2013-06-09 08:05:00,
2013-06-09 04:10:00,63.0,55.3,30.02,SE,146,0.0,0.0,76,0.00,,---,0.00,VWS V14.00,2013-06-09 08:10:00,
2013-06-09 04:16:00,62.9,55.6,30.02,SE,145,0.0,0.0,77,0.00,,---,0.00,VWS V14.00,2013-06-09 08:16:00,
2013-06-09 04:21:00,62.8,55.5,30.01,SE,146,0.0,0.0,77,0.00,,---,0.00,VWS V14.00,2013-06-09 08:21:00,
2013-06-09 04:26:00,62.7,55.4,30.01,SE,145,0.0,0.0,77,0.00,,---,0.00,VWS V14.00,2013-06-09 08:26:00,
2013-06-09 04:31:00,62.7,55.8,30.01,SE,146,0.0,0.0,78,0.00,,---,0.00,VWS V14.00,2013-06-09 08:31:00,
2013-06-09 04:37:00,62.6,55.7,30.01,SE,146,0.0,0.0,78,0.00,,---,0.00,VWS V14.00,2013-06-09 08:37:00,
2013-06-09 04:42:00,62.5,55.6,30.01,SE,145,0.0,1.0,78,0.00,,---,0.00,VWS V14.00,2013-06-09 08:42:00,
2013-06-09 04:47:00,62.4,55.5,30.01,SE,145,1.0,1.0,78,0.00,,---,0.00,VWS V14.00,2013-06-09 08:47:00,
2013-06-09 04:52:00,62.2,55.6,30.01,SE,145,0.0,1.0,79,0.00,,---,0.00,VWS V14.00,2013-06-09 08:52:00,
2013-06-09 04:57:00,62.1,55.5,30.01,SE,129,0.0,2.0,79,0.00,,---,0.00,VWS V14.00,2013-06-09 08:57:00,
2013-06-09 05:02:00,62.0,55.8,30.01,SE,129,0.0,0.0,80,0.00,,---,0.00,VWS V14.00,2013-06-09 09:02:00,
2013-06-09 05:07:00,61.9,55.7,30.02,East,96,0.0,1.0,80,0.00,,---,0.00,VWS V14.00,2013-06-09 09:07:00,
2013-06-09 05:12:00,61.8,55.6,30.01,East,95,0.0,1.0,80,0.00,,---,0.00,VWS V14.00,2013-06-09 09:12:00,
2013-06-09 05:18:00,61.8,55.6,30.01,East,93,0.0,1.0,80,0.00,,---,0.00,VWS V14.00,2013-06-09 09:18:00,
2013-06-09 05:23:00,61.7,55.8,30.01,East,98,0.0,1.0,81,0.00,,---,0.00,VWS V14.00,2013-06-09 09:23:00,
2013-06-09 05:28:00,61.6,55.7,30.01,East,92,2.0,2.0,81,0.00,,---,0.00,VWS V14.00,2013-06-09 09:28:00,
2013-06-09 05:33:00,61.6,55.7,30.01,East,98,0.0,1.0,81,0.00,,---,0.00,VWS V14.00,2013-06-09 09:33:00,
2013-06-09 05:38:00,61.5,55.6,30.02,East,98,0.0,1.0,81,0.00,,---,0.00,VWS V14.00,2013-06-09 09:38:00,
2013-06-09 05:43:00,61.4,55.5,30.02,East,98,0.0,1.0,81,0.00,,---,0.00,VWS V14.00,2013-06-09 09:43:00,
2013-06-09 05:48:00,61.4,55.5,30.02,SE,135,0.0,4.0,81,0.00,,---,0.00,VWS V14.00,2013-06-09 09:48:00,
2013-06-09 05:53:00,61.4,55.5,30.02,SE,135,0.0,4.0,81,0.00,,---,0.00,VWS V14.00,2013-06-09 09:53:00,
2013-06-09 05:58:00,61.3,55.8,30.02,SE,135,0.0,4.0,82,0.00,,---,0.00,VWS V14.00,2013-06-09 09:58:00,
2013-06-09 06:03:00,61.3,55.8,30.02,SE,134,0.0,1.0,82,0.00,,---,0.00,VWS V14.00,2013-06-09 10:03:00,
2013-06-09 06:08:00,61.3,55.8,30.02,SE,134,0.0,1.0,82,0.00,,---,0.00,VWS V14.00,2013-06-09 10:08:00,
2013-06-09 06:14:00,61.3,55.8,30.02,SE,134,0.0,2.0,82,0.00,,---,0.00,VWS V14.00,2013-06-09 10:14:00,
2013-06-09 06:19:00,61.2,55.7,30.02,ESE,117,0.0,2.0,82,0.00,,---,0.00,VWS V14.00,2013-06-09 10:19:00,
2013-06-09 06:24:00,61.2,55.7,30.02,ESE,117,0.0,2.0,82,0.00,,---,0.00,VWS V14.00,2013-06-09 10:24:00,
2013-06-09 06:29:00,61.2,55.7,30.03,ESE,117,0.0,2.0,82,0.00,,---,0.00,VWS V14.00,2013-06-09 10:29:00,
2013-06-09 06:34:00,61.2,55.7,30.02,ESE,117,0.0,1.0,82,0.00,,---,0.00,VWS V14.00,2013-06-09 10:34:00,
2013-06-09 06:39:00,61.2,55.7,30.02,ESE,113,0.0,2.0,82,0.00,,---,0.00,VWS V14.00,2013-06-09 10:39:00,
2013-06-09 06:44:00,61.2,56.0,30.02,ESE,111,0.0,2.0,83,0.00,,---,0.00,VWS V14.00,2013-06-09 10:44:00,
2013-06-09 06:49:00,61.2,56.0,30.02,ESE,111,0.0,2.0,83,0.00,,---,0.00,VWS V14.00,2013-06-09 10:49:00,
2013-06-09 06:54:00,61.2,56.0,30.02,ESE,112,0.0,2.0,83,0.00,,---,0.00,VWS V14.00,2013-06-09 10:54:00,
2013-06-09 06:59:00,61.2,56.0,30.02,ESE,111,0.0,2.0,83,0.00,,---,0.00,VWS V14.00,2013-06-09 10:59:00,
2013-06-09 07:05:00,61.3,56.1,30.03,ESE,112,0.0,1.0,83,0.00,,---,0.00,VWS V14.00,2013-06-09 11:05:00,
2013-06-09 07:10:00,61.4,56.2,30.02,ESE,111,0.0,1.0,83,0.00,,---,0.00,VWS V14.00,2013-06-09 11:10:00,
2013-06-09 07:15:00,61.5,56.3,30.02,ESE,112,0.0,1.0,83,0.00,,---,0.00,VWS V14.00,2013-06-09 11:15:00,
2013-06-09 07:20:00,61.6,56.1,30.03,ESE,112,0.0,1.0,82,0.00,,---,0.00,VWS V14.00,2013-06-09 11:20:00,
2013-06-09 07:25:00,61.8,56.2,30.02,ESE,112,0.0,1.0,82,0.00,,---,0.00,VWS V14.00,2013-06-09 11:25:00,
2013-06-09 07:30:00,62.0,56.5,30.02,SSE,168,0.0,1.0,82,0.00,,---,0.00,VWS V14.00,2013-06-09 11:30:00,
2013-06-09 07:35:00,62.1,56.5,30.03,SSE,166,0.0,1.0,82,0.00,,---,0.00,VWS V14.00,2013-06-09 11:35:00,
2013-06-09 07:41:00,62.3,56.7,30.02,SSE,166,0.0,1.0,82,0.00,,---,0.00,VWS V14.00,2013-06-09 11:41:00,
2013-06-09 07:46:00,62.5,56.6,30.02,ESE,117,0.0,4.0,81,0.00,,---,0.00,VWS V14.00,2013-06-09 11:46:00,
2013-06-09 07:51:00,62.8,56.9,30.03,ESE,117,0.0,4.0,81,0.00,,---,0.00,VWS V14.00,2013-06-09 11:51:00,
2013-06-09 07:56:00,63.1,57.2,30.03,ESE,117,0.0,4.0,81,0.00,,---,0.00,VWS V14.00,2013-06-09 11:56:00,
2013-06-09 08:01:00,63.4,57.1,30.03,ESE,109,0.0,0.0,80,0.00,,---,0.00,VWS V14.00,2013-06-09 12:01:00,
2013-06-09 08:06:00,63.8,57.5,30.03,ESE,117,0.0,4.0,80,0.00,,---,0.00,VWS V14.00,2013-06-09 12:06:00,
2013-06-09 08:11:00,64.1,57.5,30.03,ESE,108,1.0,4.0,79,0.00,,---,0.00,VWS V14.00,2013-06-09 12:11:00,
2013-06-09 08:17:00,64.4,57.4,30.03,ESE,105,0.0,4.0,78,0.00,,---,0.00,VWS V14.00,2013-06-09 12:17:00,
2013-06-09 08:22:00,64.7,57.7,30.03,ESE,105,0.0,4.0,78,0.00,,---,0.00,VWS V14.00,2013-06-09 12:22:00,
2013-06-09 08:27:00,65.0,58.0,30.03,ESE,106,0.0,4.0,78,0.00,,---,0.00,VWS V14.00,2013-06-09 12:27:00,
2013-06-09 08:32:00,65.1,58.1,30.02,ESE,106,0.0,0.0,78,0.00,,---,0.00,VWS V14.00,2013-06-09 12:32:00,
2013-06-09 08:37:00,65.2,58.2,30.02,ESE,106,0.0,1.0,78,0.00,,---,0.00,VWS V14.00,2013-06-09 12:37:00,
2013-06-09 08:42:00,65.5,58.5,30.02,ESE,106,0.0,1.0,78,0.00,,---,0.00,VWS V14.00,2013-06-09 12:42:00,
2013-06-09 08:47:00,65.8,58.8,30.02,ESE,105,0.0,1.0,78,0.00,,---,0.00,VWS V14.00,2013-06-09 12:47:00,
2013-06-09 08:52:00,66.1,59.0,30.02,ESE,106,0.0,1.0,78,0.00,,---,0.00,VWS V14.00,2013-06-09 12:52:00,
2013-06-09 08:58:00,66.4,59.0,30.02,ESE,107,0.0,1.0,77,0.00,,---,0.00,VWS V14.00,2013-06-09 12:58:00,
2013-06-09 09:03:00,66.7,59.3,30.02,ESE,110,0.0,2.0,77,0.00,,---,0.00,VWS V14.00,2013-06-09 13:03:00,
2013-06-09 09:08:00,67.1,59.3,30.02,ESE,110,0.0,2.0,76,0.00,,---,0.00,VWS V14.00,2013-06-09 13:08:00,
2013-06-09 09:13:00,67.4,59.6,30.02,East,81,0.0,2.0,76,0.00,,---,0.00,VWS V14.00,2013-06-09 13:13:00,
2013-06-09 09:18:00,67.7,59.9,30.02,SE,138,0.0,2.0,76,0.00,,---,0.00,VWS V14.00,2013-06-09 13:18:00,
2013-06-09 09:23:00,68.0,60.2,30.02,SE,130,0.0,2.0,76,0.00,,---,0.00,VWS V14.00,2013-06-09 13:23:00,
2013-06-09 09:28:00,68.4,60.2,30.02,SE,140,0.0,4.0,75,0.00,,---,0.00,VWS V14.00,2013-06-09 13:28:00,
2013-06-09 09:33:00,68.8,60.6,30.02,ESE,123,1.0,4.0,75,0.00,,---,0.00,VWS V14.00,2013-06-09 13:33:00,
2013-06-09 09:38:00,69.1,60.5,30.02,ESE,118,0.0,4.0,74,0.00,,---,0.00,VWS V14.00,2013-06-09 13:38:00,
2013-06-09 09:43:00,69.4,60.4,30.01,SE,146,0.0,4.0,73,0.00,,---,0.00,VWS V14.00,2013-06-09 13:43:00,
2013-06-09 09:48:00,69.5,60.5,30.01,SE,145,0.0,4.0,73,0.00,,---,0.00,VWS V14.00,2013-06-09 13:48:00,
2013-06-09 09:53:00,69.7,61.0,30.02,SE,145,0.0,4.0,74,0.00,,---,0.00,VWS V14.00,2013-06-09 13:53:00,
2013-06-09 09:59:00,69.9,60.9,30.01,East,82,1.0,4.0,73,0.00,,---,0.00,VWS V14.00,2013-06-09 13:59:00,
2013-06-09 10:04:00,70.0,61.0,30.01,ESE,107,2.0,5.0,73,0.00,,---,0.00,VWS V14.00,2013-06-09 14:04:00,
2013-06-09 10:09:00,70.1,61.0,30.01,East,88,0.0,5.0,73,0.00,,---,0.00,VWS V14.00,2013-06-09 14:09:00,
2013-06-09 10:14:00,70.4,61.3,30.01,East,80,0.0,5.0,73,0.00,,---,0.00,VWS V14.00,2013-06-09 14:14:00,
2013-06-09 10:19:00,70.8,61.7,30.01,ESE,106,0.0,5.0,73,0.00,,---,0.00,VWS V14.00,2013-06-09 14:19:00,
2013-06-09 10:24:00,71.0,61.5,30.01,ESE,105,0.0,5.0,72,0.00,,---,0.00,VWS V14.00,2013-06-09 14:24:00,
2013-06-09 10:29:00,71.2,61.7,30.00,ESE,107,0.0,5.0,72,0.00,,---,0.00,VWS V14.00,2013-06-09 14:29:00,
2013-06-09 10:34:00,71.4,61.9,30.01,ESE,109,0.0,2.0,72,0.00,,---,0.00,VWS V14.00,2013-06-09 14:34:00,
2013-06-09 10:39:00,71.7,62.2,30.00,ESE,109,1.0,2.0,72,0.00,,---,0.00,VWS V14.00,2013-06-09 14:39:00,
2013-06-09 10:44:00,72.1,62.2,30.00,ESE,109,0.0,2.0,71,0.00,,---,0.00,VWS V14.00,2013-06-09 14:44:00,
2013-06-09 10:49:00,72.4,62.5,30.00,ESE,109,1.0,2.0,71,0.00,,---,0.00,VWS V14.00,2013-06-09 14:49:00,
2013-06-09 10:55:00,72.8,62.5,30.00,ESE,111,0.0,6.0,70,0.00,,---,0.00,VWS V14.00,2013-06-09 14:55:00,
2013-06-09 11:00:00,73.1,62.3,30.00,ESE,117,0.0,6.0,69,0.00,,---,0.00,VWS V14.00,2013-06-09 15:00:00,
2013-06-09 11:05:00,73.4,63.4,30.00,ESE,117,1.0,2.0,71,0.00,,---,0.00,VWS V14.00,2013-06-09 15:05:00,
2013-06-09 11:10:00,74.1,63.3,30.00,SE,138,0.0,5.0,69,0.00,,---,0.00,VWS V14.00,2013-06-09 15:10:00,
2013-06-09 11:15:00,74.6,63.3,30.00,SE,125,1.0,5.0,68,0.00,,---,0.00,VWS V14.00,2013-06-09 15:15:00,
2013-06-09 11:20:00,75.2,63.9,30.00,ESE,113,0.0,5.0,68,0.00,,---,0.00,VWS V14.00,2013-06-09 15:20:00,
2013-06-09 11:25:00,75.6,64.3,30.00,SE,140,0.0,5.0,68,0.00,,---,0.00,VWS V14.00,2013-06-09 15:25:00,
2013-06-09 11:30:00,75.9,63.7,30.00,SE,141,0.0,0.0,66,0.00,,---,0.00,VWS V14.00,2013-06-09 15:30:00,
2013-06-09 11:36:00,76.0,63.8,30.00,SE,140,0.0,1.0,66,0.00,,---,0.00,VWS V14.00,2013-06-09 15:36:00,
2013-06-09 11:41:00,76.0,64.3,30.00,SE,140,0.0,1.0,67,0.00,,---,0.00,VWS V14.00,2013-06-09 15:41:00,
2013-06-09 11:46:00,76.0,63.8,30.00,East,92,0.0,2.0,66,0.00,,---,0.00,VWS V14.00,2013-06-09 15:46:00,
2013-06-09 11:51:00,76.0,64.3,30.00,SE,132,0.0,2.0,67,0.00,,---,0.00,VWS V14.00,2013-06-09 15:51:00,
2013-06-09 11:57:00,76.2,64.9,30.00,SE,131,2.0,2.0,68,0.00,,---,0.00,VWS V14.00,2013-06-09 15:57:00,
2013-06-09 12:02:00,76.7,64.5,30.00,East,100,0.0,5.0,66,0.00,,---,0.00,VWS V14.00,2013-06-09 16:02:00,
2013-06-09 12:07:00,77.2,64.5,30.00,East,100,0.0,5.0,65,0.00,,---,0.00,VWS V14.00,2013-06-09 16:07:00,
2013-06-09 12:12:00,77.5,64.4,29.99,SSE,153,0.0,5.0,64,0.00,,---,0.00,VWS V14.00,2013-06-09 16:12:00,
2013-06-09 12:17:00,77.8,64.7,29.99,East,86,1.0,5.0,64,0.00,,---,0.00,VWS V14.00,2013-06-09 16:17:00,
2013-06-09 12:22:00,78.1,64.9,30.00,ESE,111,2.0,5.0,64,0.00,,---,0.00,VWS V14.00,2013-06-09 16:22:00,
2013-06-09 12:28:00,78.3,65.1,29.99,East,95,1.0,5.0,64,0.00,,---,0.00,VWS V14.00,2013-06-09 16:28:00,
2013-06-09 12:33:00,78.4,64.8,29.99,ESE,102,0.0,1.0,63,0.00,,---,0.00,VWS V14.00,2013-06-09 16:33:00,
2013-06-09 12:38:00,78.5,65.3,29.99,ESE,102,0.0,1.0,64,0.00,,---,0.00,VWS V14.00,2013-06-09 16:38:00,
2013-06-09 12:43:00,78.7,65.5,29.99,ESE,123,1.0,4.0,64,0.00,,---,0.00,VWS V14.00,2013-06-09 16:43:00,
2013-06-09 12:48:00,79.0,64.9,29.99,ESE,121,0.0,4.0,62,0.00,,---,0.00,VWS V14.00,2013-06-09 16:48:00,
2013-06-09 12:53:00,79.2,65.5,29.99,ENE,73,0.0,4.0,63,0.00,,---,0.00,VWS V14.00,2013-06-09 16:53:00,
2013-06-09 12:58:00,79.4,65.7,29.98,NE,42,0.0,4.0,63,0.00,,---,0.00,VWS V14.00,2013-06-09 16:58:00,
2013-06-09 13:03:00,79.6,65.0,29.97,ENE,76,2.0,4.0,61,0.00,,---,0.00,VWS V14.00,2013-06-09 17:03:00,
2013-06-09 13:08:00,79.8,65.2,29.97,East,97,0.0,4.0,61,0.00,,---,0.00,VWS V14.00,2013-06-09 17:08:00,
2013-06-09 13:13:00,80.0,64.9,29.97,ESE,123,1.0,7.0,60,0.00,,---,0.00,VWS V14.00,2013-06-09 17:13:00,
2013-06-09 13:18:00,80.1,65.0,29.96,ENE,69,2.0,7.0,60,0.00,,---,0.00,VWS V14.00,2013-06-09 17:18:00,
2013-06-09 13:24:00,80.1,65.0,29.96,SE,135,4.0,7.0,60,0.00,,---,0.00,VWS V14.00,2013-06-09 17:24:00,
2013-06-09 13:29:00,80.5,65.3,29.96,ESE,113,2.0,7.0,60,0.00,,---,0.00,VWS V14.00,2013-06-09 17:29:00,
2013-06-09 13:34:00,80.5,64.4,29.96,SE,132,2.0,5.0,58,0.00,,---,0.00,VWS V14.00,2013-06-09 17:34:00,
2013-06-09 13:39:00,80.2,64.6,29.96,SE,132,1.0,5.0,59,0.00,,---,0.00,VWS V14.00,2013-06-09 17:39:00,
2013-06-09 13:44:00,79.9,64.3,29.96,SE,132,0.0,5.0,59,0.00,,---,0.00,VWS V14.00,2013-06-09 17:44:00,
2013-06-09 13:49:00,79.5,64.4,29.95,SE,135,0.0,5.0,60,0.00,,---,0.00,VWS V14.00,2013-06-09 17:49:00,
2013-06-09 13:54:00,79.2,64.1,29.95,SE,126,0.0,5.0,60,0.00,,---,0.00,VWS V14.00,2013-06-09 17:54:00,
2013-06-09 13:59:00,78.8,64.2,29.95,SE,126,1.0,5.0,61,0.00,,---,0.00,VWS V14.00,2013-06-09 17:59:00,
2013-06-09 14:04:00,78.4,64.3,29.95,SE,126,0.0,1.0,62,0.00,,---,0.00,VWS V14.00,2013-06-09 18:04:00,
2013-06-09 14:09:00,78.1,64.9,29.95,SE,135,0.0,2.0,64,0.00,,---,0.00,VWS V14.00,2013-06-09 18:09:00,
2013-06-09 14:14:00,77.7,64.6,29.94,SE,132,0.0,2.0,64,0.00,,---,0.00,VWS V14.00,2013-06-09 18:14:00,
2013-06-09 14:20:00,77.5,64.4,29.94,SE,132,0.0,2.0,64,0.00,,---,0.00,VWS V14.00,2013-06-09 18:20:00,
2013-06-09 14:25:00,77.5,64.4,29.94,SE,132,0.0,2.0,64,0.00,,---,0.00,VWS V14.00,2013-06-09 18:25:00,
2013-06-09 14:30:00,77.6,64.5,29.94,SE,132,0.0,2.0,64,0.00,,---,0.00,VWS V14.00,2013-06-09 18:30:00,
2013-06-09 14:35:00,77.4,65.6,29.94,SE,132,0.0,1.0,67,0.00,,---,0.00,VWS V14.00,2013-06-09 18:35:00,
2013-06-09 14:40:00,76.5,65.6,29.94,SW,227,0.0,4.0,69,0.00,,---,0.00,VWS V14.00,2013-06-09 18:40:00,
2013-06-09 14:45:00,75.7,66.4,29.94,WSW,250,1.0,5.0,73,0.00,,---,0.00,VWS V14.00,2013-06-09 18:45:00,
2013-06-09 14:50:00,75.7,66.0,29.93,WSW,255,0.0,5.0,72,0.00,,---,0.00,VWS V14.00,2013-06-09 18:50:00,
2013-06-09 14:55:00,76.0,65.5,29.94,WSW,254,1.0,5.0,70,0.00,,---,0.00,VWS V14.00,2013-06-09 18:55:00,
2013-06-09 15:01:00,75.8,64.9,29.93,WSW,254,0.0,0.0,69,0.00,,---,0.00,VWS V14.00,2013-06-09 19:01:00,
2013-06-09 15:06:00,75.7,66.0,29.93,WSW,254,0.0,1.0,72,0.00,,---,0.00,VWS V14.00,2013-06-09 19:06:00,
2013-06-09 15:11:00,75.9,66.2,29.92,WSW,254,0.0,1.0,72,0.00,,---,0.00,VWS V14.00,2013-06-09 19:11:00,
2013-06-09 15:17:00,76.2,65.3,29.92,WSW,254,0.0,1.0,69,0.00,,---,0.00,VWS V14.00,2013-06-09 19:17:00,
2013-06-09 15:22:00,76.5,65.6,29.92,SW,232,0.0,1.0,69,0.00,,---,0.00,VWS V14.00,2013-06-09 19:22:00,
2013-06-09 15:27:00,77.3,66.8,29.92,SW,232,0.0,1.0,70,0.00,,---,0.00,VWS V14.00,2013-06-09 19:27:00,
2013-06-09 15:32:00,77.9,65.2,29.91,SW,232,0.0,1.0,65,0.00,,---,0.00,VWS V14.00,2013-06-09 19:32:00,
2013-06-09 15:37:00,78.2,64.6,29.91,WSW,242,0.0,3.0,63,0.00,,---,0.00,VWS V14.00,2013-06-09 19:37:00,
2013-06-09 15:42:00,78.6,65.0,29.91,NNW,333,1.0,3.0,63,0.00,,---,0.00,VWS V14.00,2013-06-09 19:42:00,
2013-06-09 15:47:00,79.7,64.6,29.91,ENE,67,0.0,4.0,60,0.00,,---,0.00,VWS V14.00,2013-06-09 19:47:00,
2013-06-09 15:52:00,80.2,65.5,29.91,ENE,67,0.0,4.0,61,0.00,,---,0.00,VWS V14.00,2013-06-09 19:52:00,
2013-06-09 15:57:00,80.8,65.2,29.91,ENE,67,1.0,4.0,59,0.00,,---,0.00,VWS V14.00,2013-06-09 19:57:00,
2013-06-09 16:02:00,81.2,65.5,29.91,ENE,67,0.0,0.0,59,0.00,,---,0.00,VWS V14.00,2013-06-09 20:02:00,
2013-06-09 16:07:00,81.3,64.6,29.90,ENE,67,0.0,0.0,57,0.00,,---,0.00,VWS V14.00,2013-06-09 20:07:00,
2013-06-09 16:13:00,81.2,63.5,29.90,ENE,67,0.0,2.0,55,0.00,,---,0.00,VWS V14.00,2013-06-09 20:13:00,
2013-06-09 16:18:00,81.5,61.7,29.90,ESE,105,0.0,2.0,51,0.00,,---,0.00,VWS V14.00,2013-06-09 20:18:00,
2013-06-09 16:23:00,82.0,60.4,29.90,ESE,123,0.0,6.0,48,0.00,,---,0.00,VWS V14.00,2013-06-09 20:23:00,
2013-06-09 16:28:00,82.6,60.3,29.90,SSE,154,4.0,6.0,47,0.00,,---,0.00,VWS V14.00,2013-06-09 20:28:00,
2013-06-09 16:33:00,83.1,59.0,29.90,SSE,152,1.0,6.0,44,0.00,,---,0.00,VWS V14.00,2013-06-09 20:33:00,
2013-06-09 16:38:00,83.3,59.8,29.89,WSW,250,0.0,6.0,45,0.00,,---,0.00,VWS V14.00,2013-06-09 20:38:00,
2013-06-09 16:43:00,83.4,59.8,29.89,SE,129,1.0,6.0,45,0.00,,---,0.00,VWS V14.00,2013-06-09 20:43:00,
2013-06-09 16:49:00,83.3,59.8,29.89,ESE,111,0.0,6.0,45,0.00,,---,0.00,VWS V14.00,2013-06-09 20:49:00,
2013-06-09 16:54:00,83.2,59.7,29.89,South,172,1.0,6.0,45,0.00,,---,0.00,VWS V14.00,2013-06-09 20:54:00,
2013-06-09 16:59:00,83.4,60.5,29.89,ESE,120,0.0,6.0,46,0.00,,---,0.00,VWS V14.00,2013-06-09 20:59:00,
2013-06-09 17:04:00,83.5,59.9,29.89,ESE,120,0.0,0.0,45,0.00,,---,0.00,VWS V14.00,2013-06-09 21:04:00,
2013-06-09 17:09:00,83.7,60.1,29.89,ESE,121,0.0,1.0,45,0.00,,---,0.00,VWS V14.00,2013-06-09 21:09:00,
2013-06-09 17:14:00,83.4,58.6,29.89,WSW,238,0.0,3.0,43,0.00,,---,0.00,VWS V14.00,2013-06-09 21:14:00,
2013-06-09 17:19:00,83.1,59.0,29.88,WSW,238,0.0,3.0,44,0.00,,---,0.00,VWS V14.00,2013-06-09 21:19:00,
2013-06-09 17:24:00,82.8,58.7,29.88,WSW,240,1.0,3.0,44,0.00,,---,0.00,VWS V14.00,2013-06-09 21:24:00,
2013-06-09 17:29:00,82.7,58.6,29.88,WSW,240,0.0,3.0,44,0.00,,---,0.00,VWS V14.00,2013-06-09 21:29:00,
2013-06-09 17:34:00,82.8,59.9,29.88,WSW,240,0.0,0.0,46,0.00,,---,0.00,VWS V14.00,2013-06-09 21:34:00,
2013-06-09 17:39:00,83.0,58.9,29.88,WSW,244,0.0,4.0,44,0.00,,---,0.00,VWS V14.00,2013-06-09 21:39:00,
2013-06-09 17:45:00,83.0,58.9,29.87,WSW,248,0.0,5.0,44,0.00,,---,0.00,VWS V14.00,2013-06-09 21:45:00,
2013-06-09 17:50:00,82.8,59.9,29.88,WSW,248,0.0,5.0,46,0.00,,---,0.00,VWS V14.00,2013-06-09 21:50:00,
2013-06-09 17:55:00,82.6,60.9,29.88,WSW,248,0.0,5.0,48,0.00,,---,0.00,VWS V14.00,2013-06-09 21:55:00,
2013-06-09 18:00:00,82.3,58.9,29.88,West,272,0.0,0.0,45,0.00,,---,0.00,VWS V14.00,2013-06-09 22:00:00,
2013-06-09 18:05:00,82.3,58.9,29.88,West,272,0.0,0.0,45,0.00,,---,0.00,VWS V14.00,2013-06-09 22:05:00,
2013-06-09 18:10:00,82.1,59.3,29.88,West,272,0.0,1.0,46,0.00,,---,0.00,VWS V14.00,2013-06-09 22:10:00,
2013-06-09 18:15:00,82.1,59.3,29.88,West,272,0.0,1.0,46,0.00,,---,0.00,VWS V14.00,2013-06-09 22:15:00,
2013-06-09 18:20:00,82.0,58.6,29.88,SW,231,0.0,1.0,45,0.00,,---,0.00,VWS V14.00,2013-06-09 22:20:00,
2013-06-09 18:25:00,81.8,59.0,29.88,SSW,210,0.0,1.0,46,0.00,,---,0.00,VWS V14.00,2013-06-09 22:25:00,
2013-06-09 18:30:00,81.6,58.8,29.88,SSW,209,0.0,0.0,46,0.00,,---,0.00,VWS V14.00,2013-06-09 22:30:00,
2013-06-09 18:36:00,81.5,58.8,29.87,SSW,209,0.0,0.0,46,0.00,,---,0.00,VWS V14.00,2013-06-09 22:36:00,
2013-06-09 18:41:00,81.3,58.6,29.87,SSW,210,0.0,1.0,46,0.00,,---,0.00,VWS V14.00,2013-06-09 22:41:00,
2013-06-09 18:46:00,81.2,59.1,29.87,SSW,210,0.0,1.0,47,0.00,,---,0.00,VWS V14.00,2013-06-09 22:46:00,
2013-06-09 18:51:00,81.1,59.0,29.87,SSW,209,0.0,1.0,47,0.00,,---,0.00,VWS V14.00,2013-06-09 22:51:00,
2013-06-09 18:56:00,81.0,58.9,29.86,SSW,209,0.0,1.0,47,0.00,,---,0.00,VWS V14.00,2013-06-09 22:56:00,
2013-06-09 19:01:00,80.9,58.8,29.86,ESE,115,0.0,4.0,47,0.00,,---,0.00,VWS V14.00,2013-06-09 23:01:00,
2013-06-09 19:07:00,80.7,58.6,29.86,ESE,121,0.0,4.0,47,0.00,,---,0.00,VWS V14.00,2013-06-09 23:07:00,
2013-06-09 19:12:00,80.6,58.5,29.86,ESE,105,0.0,4.0,47,0.00,,---,0.00,VWS V14.00,2013-06-09 23:12:00,
2013-06-09 19:17:00,80.5,59.0,29.86,ESE,105,0.0,4.0,48,0.00,,---,0.00,VWS V14.00,2013-06-09 23:17:00,
2013-06-09 19:22:00,80.3,58.8,29.86,ESE,111,0.0,4.0,48,0.00,,---,0.00,VWS V14.00,2013-06-09 23:22:00,
2013-06-09 19:27:00,80.2,59.3,29.86,ESE,111,0.0,4.0,49,0.00,,---,0.00,VWS V14.00,2013-06-09 23:27:00,
2013-06-09 19:32:00,80.1,59.2,29.86,SSE,155,0.0,2.0,49,0.00,,---,0.00,VWS V14.00,2013-06-09 23:32:00,
2013-06-09 19:37:00,80.0,59.1,29.86,ESE,120,0.0,4.0,49,0.00,,---,0.00,VWS V14.00,2013-06-09 23:37:00,
2013-06-09 19:42:00,79.8,59.5,29.86,ESE,120,0.0,4.0,50,0.00,,---,0.00,VWS V14.00,2013-06-09 23:42:00,
2013-06-09 19:48:00,79.6,58.8,29.86,ESE,120,0.0,4.0,49,0.00,,---,0.00,VWS V14.00,2013-06-09 23:48:00,
2013-06-09 19:53:00,79.5,58.7,29.86,ESE,107,0.0,4.0,49,0.00,,---,0.00,VWS V14.00,2013-06-09 23:53:00,
2013-06-09 19:58:00,79.4,59.2,29.86,SE,132,0.0,4.0,50,0.00,,---,0.00,VWS V14.00,2013-06-09 23:58:00,
2013-06-09 20:03:00,79.3,59.1,29.86,SE,132,0.0,0.0,50,0.00,,---,0.00,VWS V14.00,2013-06-10 00:03:00,
2013-06-09 20:08:00,79.1,58.3,29.86,SE,130,0.0,1.0,49,0.00,,---,0.00,VWS V14.00,2013-06-10 00:08:00,
2013-06-09 20:13:00,79.0,58.2,29.86,SE,124,0.0,1.0,49,0.00,,---,0.00,VWS V14.00,2013-06-10 00:13:00,
2013-06-09 20:18:00,78.9,58.1,29.86,SE,130,0.0,1.0,49,0.00,,---,0.00,VWS V14.00,2013-06-10 00:18:00,
2013-06-09 20:23:00,78.8,58.6,29.86,SE,130,0.0,1.0,50,0.00,,---,0.00,VWS V14.00,2013-06-10 00:23:00,
2013-06-09 20:29:00,78.7,59.1,29.86,SE,132,1.0,1.0,51,0.00,,---,0.00,VWS V14.00,2013-06-10 00:29:00,
2013-06-09 20:34:00,78.3,59.8,29.86,West,271,0.0,5.0,53,0.00,,---,0.00,VWS V14.00,2013-06-10 00:34:00,
2013-06-09 20:39:00,77.9,60.5,29.87,North,351,1.0,5.0,55,0.00,,---,0.00,VWS V14.00,2013-06-10 00:39:00,
2013-06-09 20:44:00,77.5,60.6,29.87,NNE,15,1.0,5.0,56,0.00,,---,0.00,VWS V14.00,2013-06-10 00:44:00,
2013-06-09 20:49:00,77.2,60.8,29.87,SSW,197,0.0,5.0,57,0.00,,---,0.00,VWS V14.00,2013-06-10 00:49:00,
2013-06-09 20:54:00,76.8,61.4,29.87,West,279,0.0,5.0,59,0.00,,---,0.00,VWS V14.00,2013-06-10 00:54:00,
2013-06-09 20:59:00,76.4,62.0,29.87,WNW,282,1.0,5.0,61,0.00,,---,0.00,VWS V14.00,2013-06-10 00:59:00,
2013-06-09 21:05:00,75.9,62.4,29.87,SW,221,0.0,4.0,63,0.00,,---,0.00,VWS V14.00,2013-06-10 01:05:00,
2013-06-09 21:10:00,75.3,63.2,29.88,SE,134,0.0,4.0,66,0.00,,---,0.00,VWS V14.00,2013-06-10 01:10:00,
2013-06-09 21:15:00,74.9,63.2,29.88,NNE,19,0.0,4.0,67,0.00,,---,0.00,VWS V14.00,2013-06-10 01:15:00,
2013-06-09 21:20:00,74.4,63.6,29.87,NE,37,0.0,4.0,69,0.00,,---,0.00,VWS V14.00,2013-06-10 01:20:00,
2013-06-09 21:25:00,74.0,63.6,29.88,NE,38,0.0,4.0,70,0.00,,---,0.00,VWS V14.00,2013-06-10 01:25:00,
2013-06-09 21:30:00,73.6,63.6,29.87,NE,37,0.0,0.0,71,0.00,,---,0.00,VWS V14.00,2013-06-10 01:30:00,
2013-06-09 21:35:00,73.1,63.5,29.87,NE,38,0.0,0.0,72,0.00,,---,0.00,VWS V14.00,2013-06-10 01:35:00,
2013-06-09 21:40:00,72.7,63.5,29.88,NE,38,0.0,0.0,73,0.00,,---,0.00,VWS V14.00,2013-06-10 01:40:00,
2013-06-09 21:45:00,72.4,63.7,29.88,NE,38,0.0,0.0,74,0.00,,---,0.00,VWS V14.00,2013-06-10 01:45:00,
2013-06-09 21:51:00,72.1,63.8,29.88,NE,38,0.0,0.0,75,0.00,,---,0.00,VWS V14.00,2013-06-10 01:51:00,
2013-06-09 21:56:00,71.8,63.8,29.87,NE,38,0.0,0.0,76,0.01,,---,0.01,VWS V14.00,2013-06-10 01:56:00,
2013-06-09 22:01:00,71.5,63.9,29.88,NE,38,0.0,0.0,77,0.01,,---,0.01,VWS V14.00,2013-06-10 02:01:00,
2013-06-09 22:06:00,71.2,64.0,29.88,NE,38,0.0,0.0,78,0.01,,---,0.01,VWS V14.00,2013-06-10 02:06:00,
2013-06-09 22:12:00,70.8,64.0,29.88,NE,38,0.0,0.0,79,0.01,,---,0.01,VWS V14.00,2013-06-10 02:12:00,
2013-06-09 22:17:00,70.4,63.9,29.87,NE,48,0.0,1.0,80,0.01,,---,0.01,VWS V14.00,2013-06-10 02:17:00,
2013-06-09 22:22:00,70.1,64.0,29.87,NE,47,0.0,1.0,81,0.01,,---,0.01,VWS V14.00,2013-06-10 02:22:00,
2013-06-09 22:27:00,69.8,64.1,29.87,NE,48,0.0,1.0,82,0.01,,---,0.01,VWS V14.00,2013-06-10 02:27:00,
2013-06-09 22:32:00,69.5,63.8,29.87,ESE,123,0.0,7.0,82,0.01,,---,0.01,VWS V14.00,2013-06-10 02:32:00,
2013-06-09 22:37:00,69.3,63.9,29.87,ESE,114,0.0,7.0,83,0.01,,---,0.01,VWS V14.00,2013-06-10 02:37:00,
2013-06-09 22:42:00,69.2,64.2,29.87,ESE,117,0.0,7.0,84,0.01,,---,0.01,VWS V14.00,2013-06-10 02:42:00,
2013-06-09 22:48:00,69.1,64.1,29.87,SE,127,0.0,7.0,84,0.01,,---,0.01,VWS V14.00,2013-06-10 02:48:00,
2013-06-09 22:53:00,69.0,64.0,29.87,SE,127,0.0,7.0,84,0.01,,---,0.01,VWS V14.00,2013-06-10 02:53:00,
2013-06-09 22:58:00,68.9,64.2,29.87,SE,132,0.0,7.0,85,0.02,,---,0.02,VWS V14.00,2013-06-10 02:58:00,
2013-06-09 23:03:00,68.7,64.0,29.87,South,181,0.0,2.0,85,0.02,,---,0.03,VWS V14.00,2013-06-10 03:03:00,
2013-06-09 23:08:00,68.6,64.2,29.86,South,175,0.0,2.0,86,0.02,,---,0.03,VWS V14.00,2013-06-10 03:08:00,
2013-06-09 23:13:00,68.4,64.1,29.86,SE,139,0.0,4.0,86,0.02,,---,0.03,VWS V14.00,2013-06-10 03:13:00,
2013-06-09 23:18:00,68.2,64.2,29.86,SE,139,0.0,4.0,87,0.02,,---,0.03,VWS V14.00,2013-06-10 03:18:00,
2013-06-09 23:24:00,68.0,64.0,29.86,SE,124,0.0,4.0,87,0.03,,---,0.04,VWS V14.00,2013-06-10 03:24:00,
2013-06-09 23:29:00,67.9,64.2,29.86,SE,137,0.0,4.0,88,0.03,,---,0.04,VWS V14.00,2013-06-10 03:29:00,
2013-06-09 23:34:00,67.7,64.0,29.86,SE,136,0.0,1.0,88,0.03,,---,0.04,VWS V14.00,2013-06-10 03:34:00,
2013-06-09 23:39:00,67.6,64.2,29.85,SE,137,0.0,1.0,89,0.04,,---,0.05,VWS V14.00,2013-06-10 03:39:00,
2013-06-09 23:44:00,67.4,64.1,29.85,SE,136,0.0,1.0,89,0.04,,---,0.05,VWS V14.00,2013-06-10 03:44:00,
2013-06-09 23:49:00,67.3,64.0,29.85,SE,136,0.0,1.0,89,0.04,,---,0.05,VWS V14.00,2013-06-10 03:49:00,
2013-06-09 23:54:00,67.2,63.8,29.85,SE,136,0.0,1.0,89,0.04,,---,0.05,VWS V14.00,2013-06-10 03:54:00,
2013-06-09 23:59:00,67.1,63.8,29.85,SE,136,0.0,1.0,89,0.04,,---,0.05,VWS V14.00,2013-06-10 03:59:00,